TimePST,TemperatureF,Dew PointF,Humidity,Sea Level PressureIn,VisibilityMPH,Wind Direction,Wind SpeedMPH,Gust SpeedMPH,PrecipitationIn,Events,Conditions,WindDirDegrees,DateUTC
12:15 AM,37.4,37.4,100,30.09,3.0,Calm,Calm,-,N/A,,Clear,0,2012-12-09 08:15:00
12:35 AM,37.4,37.4,100,30.08,0.5,ENE,4.6,-,0.01,,Unknown,70,2012-12-09 08:35:00
12:55 AM,35.6,35.6,100,30.09,5.0,Calm,Calm,-,N/A,,Clear,0,2012-12-09 08:55:00
1:15 AM,37.4,37.4,100,30.09,7.0,Calm,Calm,-,N/A,,Clear,0,2012-12-09 09:15:00
1:35 AM,35.6,35.6,100,30.09,7.0,Calm,Calm,-,N/A,,Clear,0,2012-12-09 09:35:00
1:55 AM,41.0,39.2,93,30.09,10.0,Calm,Calm,-,N/A,,Clear,0,2012-12-09 09:55:00
2:15 AM,41.0,39.2,93,30.10,10.0,Calm,Calm,-,N/A,,Clear,0,2012-12-09 10:15:00
2:35 AM,39.2,37.4,93,30.11,10.0,NE,3.5,-,N/A,,Clear,40,2012-12-09 10:35:00
2:55 AM,39.2,37.4,93,30.11,10.0,NNE,4.6,-,N/A,,Clear,30,2012-12-09 10:55:00
3:15 AM,42.8,37.4,81,30.10,10.0,NNE,3.5,-,N/A,,Clear,30,2012-12-09 11:15:00
3:35 AM,37.4,35.6,93,30.11,7.0,East,4.6,-,N/A,,Clear,80,2012-12-09 11:35:00
3:55 AM,37.4,35.6,93,30.11,10.0,East,4.6,-,N/A,,Clear,100,2012-12-09 11:55:00
4:35 AM,37.4,35.6,93,30.11,10.0,East,3.5,-,N/A,,Clear,80,2012-12-09 12:35:00
4:55 AM,37.4,35.6,93,30.11,10.0,ESE,4.6,-,N/A,,Clear,120,2012-12-09 12:55:00
5:15 AM,37.4,35.6,93,30.11,10.0,Calm,Calm,-,N/A,,Clear,0,2012-12-09 13:15:00
5:35 AM,37.4,37.4,100,30.12,10.0,SSE,4.6,-,N/A,,Clear,150,2012-12-09 13:35:00
5:55 AM,35.6,35.6,100,30.13,10.0,Calm,Calm,-,N/A,,Clear,0,2012-12-09 13:55:00
6:15 AM,35.6,35.6,100,30.14,10.0,Calm,Calm,-,N/A,,Clear,0,2012-12-09 14:15:00
6:35 AM,35.6,35.6,100,30.14,10.0,Calm,Calm,-,N/A,,Clear,0,2012-12-09 14:35:00
6:55 AM,35.6,35.6,100,30.14,10.0,Calm,Calm,-,N/A,,Clear,0,2012-12-09 14:55:00
7:15 AM,33.8,33.8,100,30.15,7.0,Calm,Calm,-,N/A,,Clear,0,2012-12-09 15:15:00
7:35 AM,35.6,33.8,93,30.15,7.0,East,3.5,-,N/A,,Clear,80,2012-12-09 15:35:00
7:55 AM,35.6,35.6,100,30.15,10.0,Calm,Calm,-,N/A,,Clear,0,2012-12-09 15:55:00
8:15 AM,37.4,37.4,100,30.15,10.0,ENE,4.6,-,N/A,,Clear,70,2012-12-09 16:15:00
8:35 AM,41.0,39.2,93,30.16,10.0,Calm,Calm,-,N/A,,Clear,0,2012-12-09 16:35:00
8:55 AM,42.8,41.0,93,30.16,10.0,Calm,Calm,-,N/A,,Clear,0,2012-12-09 16:55:00
9:15 AM,46.4,42.8,87,30.16,10.0,Calm,Calm,-,N/A,,Clear,0,2012-12-09 17:15:00
9:35 AM,48.2,41.0,76,30.17,10.0,Calm,Calm,-,N/A,,Clear,0,2012-12-09 17:35:00
9:55 AM,50.0,39.2,66,30.18,10.0,NNW,6.9,-,N/A,,Clear,330,2012-12-09 17:55:00
10:15 AM,50.0,37.4,62,30.18,10.0,NNW,9.2,-,N/A,,Clear,330,2012-12-09 18:15:00
10:35 AM,51.8,41.0,67,30.17,10.0,North,8.1,-,N/A,,Clear,350,2012-12-09 18:35:00
10:55 AM,51.8,39.2,62,30.17,10.0,North,10.4,-,N/A,,Clear,350,2012-12-09 18:55:00
11:15 AM,53.6,41.0,62,30.16,10.0,NE,8.1,-,N/A,,Clear,40,2012-12-09 19:15:00
11:35 AM,53.6,41.0,62,30.15,10.0,NE,6.9,-,0.01,,Clear,40,2012-12-09 19:35:00
11:55 AM,53.6,39.2,58,30.14,10.0,NNE,5.8,-,N/A,,Clear,30,2012-12-09 19:55:00
12:15 PM,55.4,41.0,58,30.13,10.0,North,4.6,-,N/A,,Clear,10,2012-12-09 20:15:00
12:35 PM,55.4,39.2,54,30.12,10.0,North,5.8,-,N/A,,Clear,360,2012-12-09 20:35:00
12:55 PM,57.2,39.2,51,30.11,10.0,NNE,4.6,-,N/A,,Clear,20,2012-12-09 20:55:00
1:15 PM,59.0,39.2,48,30.11,10.0,Calm,Calm,-,N/A,,Clear,0,2012-12-09 21:15:00
1:35 PM,59.0,41.0,51,30.11,10.0,Calm,Calm,-,N/A,,Clear,0,2012-12-09 21:35:00
1:55 PM,60.8,41.0,48,30.11,10.0,Calm,Calm,-,N/A,,Clear,0,2012-12-09 21:55:00
2:15 PM,60.8,42.8,52,30.11,10.0,SW,5.8,-,N/A,,Clear,220,2012-12-09 22:15:00
2:35 PM,60.8,42.8,52,30.10,10.0,SSW,4.6,-,N/A,,Clear,200,2012-12-09 22:35:00
2:55 PM,60.8,42.8,52,30.10,10.0,South,4.6,-,N/A,,Clear,180,2012-12-09 22:55:00
3:15 PM,60.8,42.8,52,30.10,10.0,South,3.5,-,N/A,,Clear,180,2012-12-09 23:15:00
3:35 PM,59.0,42.8,55,30.11,10.0,SSW,4.6,-,N/A,,Clear,200,2012-12-09 23:35:00
3:55 PM,59.0,42.8,55,30.11,10.0,WSW,3.5,-,N/A,,Clear,250,2012-12-09 23:55:00
4:15 PM,57.2,44.6,63,30.11,10.0,SW,4.6,-,N/A,,Clear,220,2012-12-10 00:15:00
4:35 PM,55.4,42.8,63,30.11,10.0,Calm,Calm,-,N/A,,Clear,0,2012-12-10 00:35:00
4:55 PM,53.6,42.8,67,30.11,10.0,Calm,Calm,-,N/A,,Clear,0,2012-12-10 00:55:00
5:15 PM,51.8,42.8,71,30.11,10.0,South,4.6,-,N/A,,Clear,180,2012-12-10 01:15:00
5:35 PM,51.8,42.8,71,30.12,10.0,South,5.8,-,N/A,,Clear,190,2012-12-10 01:35:00
5:55 PM,50.0,42.8,76,30.12,10.0,South,4.6,-,N/A,,Clear,170,2012-12-10 01:55:00
6:15 PM,51.8,42.8,71,30.12,10.0,Calm,Calm,-,N/A,,Clear,0,2012-12-10 02:15:00
6:35 PM,51.8,41.0,67,30.13,10.0,South,5.8,-,N/A,,Clear,180,2012-12-10 02:35:00
6:55 PM,50.0,42.8,76,30.13,10.0,South,4.6,-,N/A,,Clear,170,2012-12-10 02:55:00
7:15 PM,46.4,42.8,87,30.14,10.0,South,5.8,-,N/A,,Clear,170,2012-12-10 03:15:00
7:35 PM,48.2,44.6,87,30.15,10.0,SSE,6.9,-,N/A,,Clear,150,2012-12-10 03:35:00
7:55 PM,50.0,44.6,82,30.15,10.0,SE,5.8,-,N/A,,Clear,140,2012-12-10 03:55:00
8:15 PM,50.0,44.6,82,30.16,10.0,SE,5.8,-,N/A,,Clear,140,2012-12-10 04:15:00
8:35 PM,46.4,42.8,87,30.16,10.0,Calm,Calm,-,N/A,,Clear,0,2012-12-10 04:35:00
9:15 PM,42.8,41.0,93,30.18,2.5,ESE,3.5,-,0.01,,Clear,110,2012-12-10 05:15:00
9:35 PM,44.6,42.8,93,30.18,7.0,Calm,Calm,-,0.01,,Clear,0,2012-12-10 05:35:00
9:55 PM,44.6,42.8,93,30.18,10.0,Calm,Calm,-,N/A,,Clear,0,2012-12-10 05:55:00
10:15 PM,42.8,42.8,100,30.19,7.0,Calm,Calm,-,N/A,,Clear,0,2012-12-10 06:15:00
10:35 PM,41.0,39.2,93,30.20,5.0,Calm,Calm,-,N/A,,Clear,0,2012-12-10 06:35:00
10:55 PM,42.8,42.8,100,30.19,7.0,ESE,3.5,-,N/A,,Clear,120,2012-12-10 06:55:00
11:15 PM,41.0,41.0,100,30.20,7.0,Calm,Calm,-,N/A,,Clear,0,2012-12-10 07:15:00
11:55 PM,41.0,39.2,93,30.20,5.0,ENE,4.6,-,N/A,,Clear,60,2012-12-10 07:55:00